Location: Caltech
(34.1382°N, 118.1253°W)
Time: 09:24:40
(UTC-07:00)

Meteor 2-4 Rocket - Visible Passes

Search period start: 30 May 2016 00:00
Search period end: 09 June 2016 00:00
Orbit: 800 x 908 km, 81.2° (Epoch: 29 May)

Date Brightness Start Highest point End Pass type
(mag) Time Alt. Az. Time Alt. Az. Time Alt. Az.
30 May 4.8 20:48:37 10° SSW 20:54:17 52° W 21:00:05 10° N visible
31 May 4.7 20:37:33 10° SSW 20:43:18 55° W 20:49:08 10° N visible
01 Jun 4.6 20:26:31 10° SSW 20:32:18 59° W 20:38:10 10° N visible
08 Jun 7.3 20:57:49 10° W 20:59:03 11° WNW 21:00:18 10° NW visible
